Weather History for Watertown, WI

Change the Weather History Date:

Wednesday, January 30, 2013

  Actual Average Record
Temperature  
Mean Temperature 25 °F -  
Max Temperature 35 °F 26 °F 46 °F (1926)
Min Temperature 15 °F 10 °F -29 °F (1951)
Degree Days  
Heating Degree Days 40    
Moisture  
Dew Point 25 °F    
Average Humidity 92    
Maximum Humidity 99    
Minimum Humidity 79    
Precipitation  
Precipitation 0.32 in - - ()
Sea Level Pressure  
Sea Level Pressure 29.40 in    
Wind  
Wind Speed 10 mph (NNW)    
Max Wind Speed 20 mph    
Max Gust Speed 26 mph    
Visibility 5 miles    
Events Rain , Snow    
Averages and records for this station are not official NWS values.
T = Trace of Precipitation, MM = Missing Value Source: NWS Daily Summary

Daily Weather History Graph

Daily Weather History Graph

Search for Another Location

Airport:

Trip Planner

Search our weather history database for the weather conditions in past years. The results will help you decide how hot, cold, wet, or windy it might be!

Date:

Astronomy

Jan. 30, 2013 Rise Set
Actual Time 7:12 AM CST 5:04 PM CST
Civil Twilight 6:41 AM CST 5:35 PM CST
Nautical Twilight 6:07 AM CST 6:09 PM CST
Astronomical Twilight 5:34 AM CST 6:42 PM CST
Moon 9:11 PM CST (1/30) 8:32 AM CST (1/30)
Length of Visible Light 10h 53m
Length of Day
9h 52m
Waning Gibbous, 87% of the Moon is Illuminated
Jan 30
Waning Gibbous
Feb 3
Last Quarter
Feb 10
New
Feb 17
First Quarter
Feb 25
Full

Hourly Weather History & Observations

Time (CST) Temp. Windchill Dew Point Humidity Pressure Visibility Wind Dir Wind Speed Gust Speed Precip Events Conditions
12:15 AM 34.7 °F 28.1 °F 34.2 °F 98% 29.44 in 5.0 mi North 8.1 mph - N/A Rain Light Rain
12:35 AM 34.9 °F 27.1 °F 34.7 °F 99% 29.44 in 5.0 mi North 10.4 mph - 0.01 in Rain Rain
12:55 AM 35.1 °F 27.9 °F 34.7 °F 99% 29.45 in 4.0 mi North 9.2 mph - 0.03 in Rain Light Rain
1:15 AM 35.1 °F 27.9 °F 34.2 °F 97% 29.46 in 5.0 mi North 9.2 mph - N/A   Drizzle
1:35 AM 34.3 °F 25.0 °F 33.4 °F 97% 29.43 in 5.0 mi North 13.8 mph 19.6 mph 0.01 in Rain Light Rain
1:55 AM 33.8 °F 26.4 °F 32.9 °F 96% 29.42 in 5.0 mi NNE 9.2 mph 16.1 mph 0.02 in   Overcast
2:15 AM 33.8 °F 25.3 °F 32.9 °F 96% 29.42 in 10.0 mi North 11.5 mph - N/A   Overcast
2:35 AM 33.4 °F 24.8 °F 32.2 °F 95% 29.41 in 10.0 mi NNE 11.5 mph 18.4 mph N/A   Overcast
2:55 AM 33.4 °F 26.6 °F 32.0 °F 94% 29.42 in 10.0 mi North 8.1 mph - N/A   Overcast
3:15 AM 33.3 °F 25.1 °F 32.0 °F 95% 29.44 in 4.0 mi North 10.4 mph - 0.01 in   Overcast
3:35 AM 32.9 °F 27.5 °F 32.0 °F 96% 29.45 in 4.0 mi North 5.8 mph - 0.03 in   Overcast
3:55 AM 32.5 °F 24.2 °F 32.0 °F 98% 29.40 in 5.0 mi North 10.4 mph - 0.04 in   Overcast
4:15 AM 32.4 °F 27.9 °F 32.0 °F 99% 29.44 in 5.0 mi North 4.6 mph - N/A   Overcast
4:35 AM 32.2 °F 26.7 °F 32.0 °F 99% 29.43 in 5.0 mi North 5.8 mph - 0.01 in   Overcast
4:55 AM 32.0 °F 24.8 °F 31.8 °F 99% 29.38 in 7.0 mi NNE 8.1 mph - 0.01 in   Overcast
5:15 AM 32.0 °F 24.8 °F 31.8 °F 99% 29.36 in 7.0 mi North 8.1 mph - N/A   Overcast
5:35 AM 32.0 °F 27.5 °F 31.8 °F 99% 29.39 in 7.0 mi NNE 4.6 mph - N/A   Overcast
5:55 AM 32.0 °F 26.4 °F 31.6 °F 99% 29.40 in 10.0 mi North 5.8 mph - N/A   Overcast
6:15 AM 32.0 °F 25.6 °F 31.8 °F 99% 29.37 in 10.0 mi North 6.9 mph - N/A   Overcast
6:35 AM 32.0 °F 26.4 °F 31.6 °F 99% 29.36 in 5.0 mi NE 5.8 mph - N/A   Overcast
6:55 AM 32.0 °F 25.6 °F 31.6 °F 99% 29.35 in 5.0 mi NNE 6.9 mph - N/A   Overcast
7:15 AM 32.0 °F 25.6 °F 31.6 °F 99% 29.34 in 3.0 mi North 6.9 mph - N/A   Overcast
7:35 AM 32.0 °F 24.8 °F 31.6 °F 99% 29.34 in 2.5 mi NNE 8.1 mph - N/A   Overcast
7:55 AM 32.0 °F 26.4 °F 31.6 °F 99% 29.33 in 1.8 mi NNE 5.8 mph - N/A   Overcast
8:15 AM 32.0 °F 27.5 °F 31.6 °F 99% 29.36 in 1.0 mi North 4.6 mph - N/A Snow Light Snow
8:35 AM 31.8 °F 25.4 °F 31.6 °F 99% 29.33 in 0.8 mi North 6.9 mph - 0.02 in Snow Snow
8:55 AM 31.6 °F 26.0 °F 31.5 °F 99% 29.32 in 0.5 mi NNE 5.8 mph - 0.05 in Snow Snow
9:15 AM 31.6 °F - 31.5 °F 99% 29.33 in 0.8 mi Calm Calm - 0.02 in Snow Light Snow
9:35 AM 31.6 °F 23.7 °F 31.1 °F 98% 29.30 in 0.5 mi NE 9.2 mph - 0.05 in Snow Light Snow
9:55 AM 31.1 °F 20.1 °F 30.2 °F 96% 29.29 in 0.5 mi NNE 16.1 mph 20.7 mph 0.07 in Snow Snow
10:15 AM 30.7 °F 22.6 °F 29.8 °F 96% 29.30 in 0.5 mi NNE 9.2 mph 18.4 mph 0.01 in Snow Light Snow
10:35 AM 30.2 °F 21.9 °F 29.1 °F 96% 29.32 in 0.5 mi North 9.2 mph 19.6 mph 0.02 in Snow Snow
10:55 AM 30.2 °F 21.3 °F 29.3 °F 96% 29.32 in 0.5 mi North 10.4 mph - 0.05 in Snow Light Snow
11:15 AM 29.8 °F 20.9 °F 28.8 °F 96% 29.32 in 0.5 mi North 10.4 mph 16.1 mph 0.01 in   Overcast
11:35 AM 29.8 °F 22.2 °F 28.8 °F 96% 29.31 in 1.0 mi North 8.1 mph - 0.02 in   Overcast
11:55 AM 29.1 °F 21.3 °F 27.7 °F 94% 29.32 in 0.5 mi North 8.1 mph - 0.03 in   Overcast
12:15 PM 29.3 °F 20.2 °F 28.4 °F 96% 29.30 in 0.8 mi North 10.4 mph 16.1 mph 0.01 in Snow Light Snow
12:35 PM 29.5 °F 18.8 °F 27.1 °F 91% 29.28 in 0.8 mi North 13.8 mph 21.9 mph 0.02 in Snow Light Snow
1:35 PM 27.7 °F 16.1 °F 25.0 °F 90% 29.29 in 4.0 mi North 15.0 mph 20.7 mph N/A   Overcast
1:55 PM 27.5 °F 16.3 °F 24.8 °F 90% 29.29 in 3.0 mi North 13.8 mph 23.0 mph N/A Snow Light Snow
2:15 PM 27.3 °F 16.6 °F 24.8 °F 90% 29.30 in 7.0 mi NNW 12.7 mph - N/A Snow Light Snow
2:35 PM 27.1 °F 18.2 °F 24.8 °F 91% 29.30 in 3.0 mi NNW 9.2 mph - N/A Snow Light Snow
2:55 PM 27.0 °F 16.7 °F 24.6 °F 91% 29.31 in 1.2 mi NNW 11.5 mph 17.3 mph N/A Snow Light Snow
3:15 PM 26.6 °F 14.7 °F 24.3 °F 91% 29.32 in 1.5 mi NNW 15.0 mph 19.6 mph N/A Snow Light Snow
3:35 PM 26.6 °F 16.2 °F 23.9 °F 90% 29.33 in 3.0 mi NNW 11.5 mph 17.3 mph N/A Snow Light Snow
4:15 PM 25.7 °F 14.0 °F 23.0 °F 89% 29.34 in 1.8 mi NW 13.8 mph 19.6 mph N/A Snow Light Snow
4:35 PM 25.5 °F 14.3 °F 23.0 °F 90% 29.36 in 2.0 mi NW 12.7 mph - N/A Snow Light Snow
4:55 PM 25.2 °F 15.7 °F 22.5 °F 89% 29.37 in 3.0 mi NW 9.2 mph - N/A Snow Light Snow
5:15 PM 24.6 °F 14.4 °F 21.9 °F 89% 29.38 in 4.0 mi NW 10.4 mph - N/A Snow Light Snow
5:35 PM 24.6 °F 13.8 °F 22.1 °F 90% 29.40 in 3.0 mi NW 11.5 mph 18.4 mph N/A Snow Light Snow
5:55 PM 23.4 °F 9.2 °F 20.7 °F 89% 29.41 in 3.0 mi WNW 18.4 mph 23.0 mph N/A Snow Light Snow
6:15 PM 22.6 °F 10.7 °F 19.4 °F 87% 29.42 in 4.0 mi WNW 12.7 mph 20.7 mph N/A Snow Light Snow
6:35 PM 21.6 °F 6.5 °F 17.6 °F 85% 29.43 in 5.0 mi NW 19.6 mph 26.5 mph N/A Snow Light Snow
6:55 PM 20.7 °F 6.6 °F 17.1 °F 86% 29.44 in 4.0 mi WNW 16.1 mph 19.6 mph N/A Snow Light Snow
7:15 PM 19.9 °F 5.7 °F 15.6 °F 83% 29.45 in 7.0 mi WNW 16.1 mph 20.7 mph N/A   Overcast
7:35 PM 19.4 °F 5.0 °F 15.1 °F 83% 29.46 in 5.0 mi WNW 16.1 mph 24.2 mph N/A   Overcast
7:55 PM 19.0 °F 5.6 °F 14.7 °F 83% 29.46 in 7.0 mi WNW 13.8 mph 21.9 mph N/A   Overcast
8:15 PM 18.5 °F 4.3 °F 14.9 °F 86% 29.48 in 5.0 mi WNW 15.0 mph 21.9 mph N/A Snow Light Snow
8:35 PM 18.0 °F 3.1 °F 14.0 °F 84% 29.49 in 7.0 mi WNW 16.1 mph 20.7 mph N/A Snow Light Snow
8:55 PM 17.4 °F 3.5 °F 13.1 °F 83% 29.49 in 7.0 mi WNW 13.8 mph 24.2 mph N/A   Overcast
9:15 PM 16.7 °F 1.5 °F 12.6 °F 84% 29.51 in 7.0 mi WNW 16.1 mph 24.2 mph N/A   Overcast
9:35 PM 16.5 °F 1.8 °F 11.8 °F 82% 29.52 in 7.0 mi WNW 15.0 mph 25.3 mph N/A   Overcast
10:15 PM 16.2 °F 0.3 °F 10.9 °F 80% 29.53 in 10.0 mi WNW 17.3 mph 21.9 mph N/A   Overcast
10:35 PM 16.0 °F 2.3 °F 10.4 °F 79% 29.54 in 10.0 mi WNW 12.7 mph 25.3 mph N/A   Overcast
10:55 PM 15.8 °F 2.1 °F 10.2 °F 79% 29.55 in 10.0 mi WNW 12.7 mph 20.7 mph N/A   Overcast
11:15 PM 16.2 °F 1.9 °F 10.8 °F 79% 29.56 in 10.0 mi WNW 13.8 mph - N/A   Overcast
11:35 PM 15.8 °F 2.1 °F 10.4 °F 79% 29.57 in 10.0 mi WNW 12.7 mph 21.9 mph N/A   Overcast
11:55 PM 15.6 °F 1.2 °F 10.4 °F 80% 29.58 in 10.0 mi WNW 13.8 mph 18.4 mph N/A   Overcast